Location: Bad Dürkheim
(49.4618°N, 8.1724°E)
Time: 04:21:28
(UTC+00:00)

ALOS 2 - Pass Details

Date: 14 June 2025
Orbit: 630 x 632 km, 97.9° (Epoch: 12 July)

Event Time Altitude Azimuth Distance (km) Brightness Sun altitude
Exits shadow 21:36:21 11° 110° (ESE) 1,972 4.7 -13.1°
Maximum altitude 21:39:31 22° 62° (ENE) 1,411 4.4 -13.3°
Drops below altitude 10° 21:42:51 10° 12° (NNE) 2,026 6.0 -13.6°
Sets 21:45:27 0° 358° (N) 2,939 7.4 -13.8°
